EW9515 Weather Reports


Display with metric or nautical units.
time (UTC)temp
F
wind
direction
speed
MPH
gust
MPH
rain 1hr
in
rain 24hr
in
rain mn
in
humidity
%
barometer
mb
20260904101929 0 113 1.0 1.0 0.00 0.00 0.00
20260904100918 0 113 1.0 1.0 0.00 0.00 0.00
20260904095932 0 113 1.0 1.0 0.00 0.00 0.00
20260904094929 0 0.0 1.0 0.00 0.00 0.00
20260904093919 0 0.0 1.0 0.00 0.00 0.00
20260904092933 0 0.0 0.0 0.00 0.00 0.00
20260904091928 0 0.0 1.0 0.00 0.00 0.00
20260904090918 0 113 1.0 2.0 0.00 0.00 0.00
20260904085933 0 0.0 1.0 0.00 0.00 0.00
20260904084929 0 113 1.0 2.0 0.00 0.00 0.00
20260904083918 0 0.0 1.0 0.00 0.00 0.00
20260904082931 0 113 1.0 1.0 0.00 0.00 0.00
20260904081929 0 0.0 1.0 0.00 0.00 0.00
20260904080918 0 0.0 1.0 0.00 0.00 0.00
20260904075953 0 0.0 1.0 0.00 0.00 0.00
20260904074929 0 113 1.0 2.0 0.00 0.00 0.00
20260904073918 0 113 3.0 7.0 0.00 0.00 0.00
20260904072931 0 90 2.0 4.0 0.00 0.00 0.00
20260904071948 0 113 1.0 2.0 0.00 0.00 0.00
20260904070919 0 113 1.0 4.0 0.00 0.00 0.00
20260904065932 0 90 3.0 6.0 0.00 0.00 0.00
20260904064948 0 135 4.0 8.0 0.00 0.00 0.00
20260904063918 0 113 3.0 4.0 0.00 0.00 0.00
20260904062938 0 90 2.0 3.0 0.00 0.00 0.00
20260904061930 0 113 2.0 5.0 0.00 0.00 0.00
20260904060918 0 113 3.0 5.0 0.00 0.00 0.00
20260904055937 0 90 1.0 1.0 0.00 0.00 0.00
20260904054934 0 68 6.0 10.0 0.00 0.00 0.00
20260904053918 0 90 3.0 6.0 0.00 0.00 0.00
20260904052934 0 68 4.0 7.0 0.00 0.00 0.00
20260904051934 0 180 4.0 5.0 0.00 0.00 0.00
20260904050918 0 68 4.0 5.0 0.00 0.00 0.00
20260904045931 0 68 2.0 8.0 0.00 0.00 0.00
20260904044928 0 113 2.0 6.0 0.00 0.00 0.00
20260904043918 0 180 4.0 6.0 0.00 0.00 0.00
20260904042932 0 113 2.0 4.0 0.00 0.00 0.00
20260904041928 0 68 4.0 5.0 0.00 0.00 0.00
20260904040917 0 113 3.0 7.0 0.00 0.00 0.00
20260904035931 0 68 4.0 7.0 0.00 0.00 0.00
20260904034928 0 90 5.0 8.0 0.00 0.00 0.00
20260904033917 0 68 7.0 13.0 0.00 0.00 0.00
20260904032951 0 68 7.0 10.0 0.00 0.00 0.00
20260904032028 0 0.0 0.0 0.00 0.00 0.00
20260904031437 0 90 4.0 6.0 0.00 0.00 0.00
20260904030433 0 68 6.0 11.0 0.00 0.00 0.00
20260904025418 0 68 6.0 9.0 0.00 0.00 0.00
20260904024432 0 68 3.0 4.0 0.00 0.00 0.00
20260904023428 0 90 2.0 3.0 0.00 0.00 0.00
20260904022418 0 68 6.0 8.0 0.00 0.00 0.00
20260904021452 0 68 5.0 7.0 0.00 0.00 0.00
20260904020428 0 90 3.0 6.0 0.00 0.00 0.00
20260904015419 0 113 6.0 11.0 0.00 0.00 0.00
20260904014431 0 68 4.0 7.0 0.00 0.00 0.00
20260904013433 0 45 4.0 7.0 0.00 0.00 0.00
20260904012418 0 158 3.0 7.0 0.00 0.00 0.00
20260904011432 0 45 5.0 8.0 0.00 0.00 0.00
20260904010509 0 68 6.0 9.0 0.00 0.00 0.00
20260904005543 0 68 4.0 7.0 0.00 0.00 0.00
20260904004436 0 68 4.0 9.0 0.00 0.00 0.00
20260904003429 0 203 2.0 3.0 0.00 0.00 0.00
20260904002417 0 45 3.0 4.0 0.00 0.00 0.00
20260904001430 0 68 2.0 3.0 0.00 0.00 0.00
20260904000430 0 135 3.0 5.0 0.00 0.00 0.00
20260903235417 0 113 2.0 3.0 0.00 0.00 0.00
20260903234431 0 135 2.0 4.0 0.00 0.00 0.00
20260903233427 0 180 4.0 12.0 0.00 0.00 0.00
20260903232417 0 180 4.0 5.0 0.00 0.00 0.00
20260903231500 0 158 4.0 8.0 0.00 0.00 0.00
20260903230428 0 90 1.0 3.0 0.00 0.00 0.00
20260903225417 0 90 1.0 2.0 0.00 0.00 0.00
20260903224511 0 90 2.0 3.0 0.00 0.00 0.00
20260903223427 0 135 1.0 2.0 0.00 0.00 0.00
20260903222417 0 135 1.0 2.0 0.00 0.00 0.00
20260903221429 0 135 1.0 1.0 0.00 0.00 0.00
20260903220427 0 0.0 1.0 0.00 0.00 0.00
20260903215422 0 0.0 1.0 0.00 0.00 0.00
20260903214450 0 158 1.0 1.0 0.00 0.00 0.00
20260903213428 0 158 1.0 3.0 0.00 0.00 0.00
20260903212417 0 158 1.0 2.0 0.00 0.00 0.00
20260903211449 0 0.0 1.0 0.00 0.00 0.00
20260903210448 0 158 2.0 3.0 0.00 0.00 0.00
20260903205422 0 158 1.0 2.0 0.00 0.00 0.00
20260903204430 0 158 1.0 2.0 0.00 0.00 0.00
20260903203446 0 0.0 1.0 0.00 0.00 0.00
20260903202417 0 0.0 1.0 0.00 0.00 0.00
20260903201429 0 158 1.0 1.0 0.00 0.00 0.00
20260903200448 0 0.0 1.0 0.00 0.00 0.00
20260903195437 0 180 1.0 2.0 0.00 0.00 0.00
20260903194430 0 180 2.0 3.0 0.00 0.00 0.00
20260903193428 0 158 2.0 3.0 0.00 0.00 0.00
20260903192416 0 68 2.0 3.0 0.00 0.00 0.00
20260903191435 0 68 1.0 2.0 0.00 0.00 0.00
20260903190427 0 0.0 1.0 0.00 0.00 0.00
20260903185417 0 68 3.0 4.0 0.00 0.00 0.00
20260903184451 0 0.0 0.0 0.00 0.00 0.00
20260903183428 0 0.0 1.0 0.00 0.00 0.00
20260903182418 0 23 2.0 2.0 0.00 0.00 0.00
20260903181452 0 23 1.0 1.0 0.00 0.00 0.00
20260903180428 0 0.0 1.0 0.00 0.00 0.00
20260903175439 0 23 1.0 2.0 0.00 0.00 0.00
20260903174432 0 0.0 1.0 0.00 0.00 0.00
20260903173430 0 0.0 0.0 0.00 0.00 0.00
20260903172418 0 23 1.0 1.0 0.00 0.00 0.00
20260903171432 0 0.0 0.0 0.00 0.00 0.00
20260903170428 0 0.0 1.0 0.00 0.00 0.00
20260903165418 0 0.0 0.0 0.00 0.00 0.00
20260903164455 0 0.0 1.0 0.00 0.00 0.00
20260903163429 0 0.0 1.0 0.00 0.00 0.00
20260903162421 0 0.0 1.0 0.00 0.00 0.00
20260903161432 0 23 1.0 1.0 0.00 0.00 0.00
20260903160429 0 0.0 1.0 0.00 0.00 0.00
20260903155418 0 0.0 1.0 0.00 0.00 0.00
20260903154452 0 0.0 1.0 0.00 0.00 0.00
20260903153430 0 0.0 0.0 0.00 0.00 0.00
20260903152423 0 23 1.0 1.0 0.00 0.00 0.00
20260903151436 0 0.0 0.0 0.00 0.00 0.00
20260903150449 0 0.0 0.0 0.00 0.00 0.00
20260903145419 0 0.0 0.0 0.00 0.00 0.00
20260903144453 0 0.0 1.0 0.00 0.00 0.00
20260903143449 0 0.0 1.0 0.00 0.00 0.00
20260903142423 0 0.0 0.0 0.00 0.00 0.00
20260903141433 0 0.0 0.0 0.00 0.00 0.00
20260903140429 0 0.0 0.0 0.00 0.00 0.00
20260903135417 0 0.0 0.0 0.00 0.00 0.00
20260903134430 0 0.0 0.0 0.00 0.00 0.00
20260903133428 0 0.0 0.0 0.00 0.00 0.00
20260903132437 0 0.0 0.0 0.00 0.00 0.00
20260903131436 0 0.0 0.0 0.00 0.00 0.00
20260903130427 0 0.0 0.0 0.00 0.00 0.00
20260903125417 0 0.0 0.0 0.00 0.00 0.00
20260903124432 0 0.0 0.0 0.00 0.00 0.00
20260903123427 0 0.0 0.0 0.00 0.00 0.00
20260903122417 0 0.0 0.0 0.00 0.00 0.00
20260903121430 0 23 1.0 2.0 0.00 0.00 0.00
20260903120451 0 0.0 0.0 0.00 0.00 0.00
20260903115422 0 0.0 1.0 0.00 0.00 0.00
20260903114450 0 0.0 0.0 0.00 0.00 0.00
20260903113427 0 0.0 0.0 0.00 0.00 0.00
20260903112502 0 0.0 0.0 0.00 0.00 0.00
20260903111430 0 23 1.0 1.0 0.00 0.00 0.00
20260903110427 0 0.0 1.0 0.00 0.00 0.00
20260903105417 0 0.0 1.0 0.00 0.00 0.00
20260903104430 0 0.0 1.0 0.00 0.00 0.00
20260903103426 0 0.0 1.0 0.00 0.00 0.00
20260903102422 0 0.0 1.0 0.00 0.00 0.00